QPF
0.00 0.00 0.00 0.00 0.00 0.00 0.00 0.01 0.01 0.01 0.01 0.01 0.01 0.01 0.00 0.01 0.01 0.01 0.01 0.01 0.01 0.01 0.01 0.02 0.04 0.03 0.02 0.03 0.05 0.06 0.07 0.09 0.10 0.09 0.07 0.07 0.06 0.06 0.05 0.05 0.05 0.05 0.05 0.06
0.01 0.00 0.00 0.00 0.00 0.00 0.00 0.01 0.01 0.01 0.01 0.01 0.01 0.00 0.00 0.00 0.00 0.01 0.01 0.01 0.01 0.01 0.01 0.02 0.04 0.03 0.02 0.03 0.03 0.03 0.04 0.06 0.07 0.06 0.04 0.04 0.05 0.06 0.07 0.06 0.06 0.07 0.07 0.06
0.02 0.00 0.00 0.00 0.00 0.00 0.00 0.00 0.00 0.01 0.00 0.00 0.00 0.00 0.00 0.00 0.00 0.01 0.01 0.01 0.01 0.01 0.01 0.02 0.02 0.02 0.02 0.03 0.03 0.03 0.04 0.05 0.04 0.04 0.03 0.04 0.05 0.06 0.08 0.08 0.08 0.08 0.07 0.06
0.01 0.01 0.00 0.00 0.00 0.00 0.00 0.00 0.00 0.00 0.01 0.01 0.00 0.01 0.01 0.00 0.00 0.00 0.00 0.01 0.01 0.01 0.01 0.01 0.01 0.02 0.02 0.03 0.03 0.04 0.04 0.05 0.05 0.04 0.04 0.06 0.06 0.05 0.06 0.08 0.07 0.06 0.04 0.05
0.01 0.01 0.01 0.01 0.00 0.00 0.00 0.00 0.00 0.01 0.01 0.01 0.00 0.01 0.01 0.00 0.01 0.01 0.01 0.00 0.00 0.01 0.01 0.01 0.01 0.02 0.02 0.03 0.03 0.03 0.04 0.05 0.04 0.04 0.04 0.06 0.05 0.05 0.06 0.05 0.04 0.03 0.03 0.03
0.00 0.00 0.01 0.00 0.00 0.00 0.00 0.00 0.01 0.00 0.01 0.01 0.00 0.01 0.01 0.01 0.01 0.01 0.01 0.01 0.01 0.01 0.01 0.01 0.02 0.02 0.02 0.04 0.04 0.03 0.04 0.04 0.04 0.04 0.05 0.06 0.06 0.05 0.04 0.04 0.04 0.05 0.05 0.04
0.00 0.00 0.00 0.00 0.00 0.00 0.00 0.01 0.02 0.01 0.01 0.01 0.00 0.01 0.01 0.01 0.02 0.02 0.01 0.03 0.01 0.01 0.01 0.01 0.01 0.01 0.02 0.03 0.03 0.04 0.05 0.05 0.03 0.03 0.04 0.05 0.06 0.05 0.03 0.04 0.05 0.06 0.07 0.07
0.00 0.00 0.00 0.00 0.00 0.00 0.00 0.01 0.02 0.01 0.01 0.01 0.00 0.01 0.01 0.01 0.02 0.01 0.02 0.03 0.01 0.01 0.01 0.01 0.01 0.01 0.02 0.02 0.02 0.03 0.04 0.05 0.05 0.06 0.06 0.06 0.05 0.05 0.03 0.04 0.05 0.05 0.05 0.05
0.00 0.00 0.00 0.00 0.00 0.00 0.00 0.01 0.01 0.01 0.01 0.01 0.01 0.01 0.01 0.01 0.01 0.01 0.02 0.02 0.01 0.01 0.01 0.01 0.01 0.01 0.02 0.02 0.02 0.03 0.05 0.05 0.05 0.06 0.07 0.05 0.04 0.03 0.03 0.04 0.04 0.03 0.03 0.04
0.01 0.00 0.00 0.00 0.00 0.00 0.00 0.00 0.01 0.02 0.02 0.01 0.01 0.02 0.02 0.02 0.01 0.01 0.01 0.01 0.01 0.01 0.01 0.01 0.02 0.03 0.04 0.03 0.03 0.03 0.03 0.02 0.03 0.04 0.07 0.07 0.04 0.03 0.04 0.04 0.04 0.04 0.03 0.03
0.01 0.01 0.01 0.00 0.00 0.01 0.00 0.00 0.01 0.02 0.02 0.02 0.03 0.03 0.02 0.02 0.01 0.01 0.01 0.01 0.02 0.01 0.02 0.02 0.03 0.06 0.05 0.04 0.04 0.03 0.03 0.03 0.03 0.04 0.05 0.05 0.04 0.04 0.04 0.04 0.04 0.03 0.04 0.03
0.01 0.01 0.01 0.01 0.00 0.00 0.01 0.01 0.01 0.02 0.02 0.02 0.02 0.03 0.02 0.02 0.01 0.01 0.01 0.01 0.01 0.02 0.02 0.02 0.03 0.05 0.03 0.04 0.04 0.05 0.05 0.04 0.03 0.03 0.03 0.03 0.04 0.05 0.07 0.08 0.05 0.03 0.02 0.01
0.01 0.01 0.02 0.01 0.01 0.01 0.01 0.00 0.01 0.01 0.01 0.01 0.02 0.02 0.01 0.01 0.01 0.01 0.01 0.02 0.01 0.01 0.02 0.02 0.03 0.04 0.03 0.04 0.04 0.06 0.06 0.05 0.03 0.03 0.03 0.03 0.04 0.06 0.09 0.10 0.06 0.04 0.02 0.02
0.01 0.01 0.02 0.02 0.02 0.00 0.00 0.01 0.01 0.01 0.02 0.01 0.02 0.02 0.01 0.01 0.01 0.01 0.01 0.01 0.01 0.02 0.02 0.02 0.03 0.04 0.04 0.04 0.04 0.04 0.05 0.04 0.03 0.02 0.03 0.03 0.03 0.05 0.08 0.08 0.04 0.03 0.02 0.01
0.01 0.01 0.01 0.00 0.00 0.00 0.01 0.01 0.01 0.02 0.02 0.02 0.02 0.02 0.01 0.01 0.01 0.01 0.01 0.01 0.01 0.03 0.04 0.02 0.02 0.03 0.03 0.03 0.03 0.03 0.02 0.02 0.02 0.02 0.03 0.05 0.04 0.03 0.05 0.06 0.04 0.03 0.02 0.01
0.00 0.01 0.01 0.01 0.00 0.00 0.01 0.02 0.03 0.03 0.02 0.02 0.02 0.01 0.01 0.01 0.01 0.01 0.01 0.01 0.02 0.04 0.03 0.02 0.02 0.02 0.03 0.03 0.03 0.03 0.02 0.02 0.02 0.02 0.01 0.03 0.02 0.02 0.02 0.03 0.03 0.02 0.02 0.02
0.01 0.01 0.02 0.02 0.01 0.01 0.02 0.02 0.02 0.01 0.01 0.01 0.01 0.01 0.01 0.01 0.01 0.01 0.01 0.01 0.02 0.03 0.02 0.01 0.01 0.01 0.02 0.03 0.03 0.02 0.03 0.02 0.02 0.02 0.02 0.02 0.02 0.01 0.02 0.02 0.02 0.02 0.02 0.02
0.00 0.01 0.02 0.02 0.02 0.03 0.02 0.01 0.01 0.01 0.03 0.03 0.02 0.01 0.01 0.01 0.01 0.02 0.02 0.01 0.01 0.02 0.01 0.01 0.01 0.01 0.02 0.02 0.02 0.03 0.03 0.02 0.02 0.02 0.02 0.03 0.03 0.02 0.03 0.02 0.02 0.01 0.01 0.01
0.00 0.01 0.03 0.03 0.03 0.02 0.01 0.01 0.01 0.02 0.05 0.04 0.02 0.01 0.01 0.01 0.01 0.02 0.02 0.02 0.02 0.02 0.01 0.00 0.01 0.01 0.01 0.03 0.04 0.04 0.03 0.02 0.02 0.02 0.02 0.03 0.02 0.02 0.02 0.02 0.03 0.02 0.02 0.02
0.01 0.01 0.02 0.02 0.02 0.03 0.02 0.01 0.01 0.02 0.04 0.04 0.02 0.01 0.01 0.01 0.02 0.02 0.01 0.01 0.02 0.03 0.01 0.01 0.01 0.01 0.02 0.03 0.04 0.05 0.05 0.04 0.04 0.03 0.03 0.03 0.03 0.02 0.02 0.03 0.04 0.03 0.02 0.03
0.01 0.01 0.01 0.01 0.02 0.04 0.02 0.01 0.02 0.03 0.03 0.03 0.02 0.01 0.01 0.01 0.02 0.02 0.01 0.01 0.02 0.03 0.02 0.01 0.01 0.02 0.03 0.04 0.04 0.06 0.06 0.05 0.04 0.04 0.04 0.04 0.04 0.03 0.03 0.05 0.05 0.03 0.02 0.02
0.01 0.02 0.02 0.02 0.02 0.03 0.02 0.02 0.03 0.04 0.01 0.01 0.01 0.01 0.01 0.01 0.01 0.01 0.02 0.02 0.03 0.02 0.01 0.01 0.02 0.03 0.03 0.04 0.05 0.06 0.06 0.05 0.04 0.05 0.06 0.05 0.04 0.03 0.04 0.05 0.03 0.02 0.01 0.01
0.02 0.03 0.03 0.03 0.03 0.02 0.02 0.02 0.02 0.01 0.01 0.01 0.01 0.01 0.01 0.01 0.01 0.01 0.03 0.03 0.02 0.01 0.01 0.02 0.02 0.02 0.02 0.03 0.04 0.05 0.06 0.06 0.04 0.03 0.04 0.05 0.04 0.04 0.05 0.03 0.02 0.02 0.01 0.01
0.01 0.01 0.02 0.02 0.01 0.01 0.01 0.01 0.01 0.01 0.01 0.01 0.01 0.01 0.01 0.01 0.01 0.02 0.02 0.02 0.02 0.02 0.03 0.02 0.02 0.02 0.02 0.03 0.03 0.05 0.06 0.06 0.06 0.05 0.04 0.04 0.03 0.05 0.04 0.02 0.02 0.02 0.01 0.01
0.00 0.01 0.01 0.01 0.01 0.01 0.00 0.00 0.01 0.01 0.01 0.01 0.01 0.01 0.01 0.01 0.01 0.01 0.02 0.01 0.02 0.03 0.03 0.03 0.02 0.02 0.02 0.03 0.03 0.04 0.05 0.05 0.05 0.06 0.06 0.05 0.05 0.04 0.02 0.01 0.01 0.01 0.01 0.01
0.00 0.00 0.01 0.01 0.01 0.01 0.01 0.01 0.01 0.01 0.01 0.01 0.01 0.01 0.01 0.01 0.01 0.01 0.01 0.01 0.02 0.02 0.02 0.02 0.02 0.02 0.02 0.02 0.03 0.04 0.04 0.03 0.04 0.06 0.06 0.06 0.05 0.03 0.02 0.01 0.01 0.00 0.01 0.00
MSLP
1008.86 1009.07 1009.16 1009.16 1009.11 1009.06 1009.05 1009.09 1009.18 1009.28 1009.36 1009.41 1009.39 1009.34 1009.28 1009.26 1009.34 1009.57 1009.95 1010.50 1011.17 1011.90 1012.64 1013.33 1013.91 1014.38 1014.73 1015.00 1015.22 1015.43 1015.64 1015.89 1016.16 1016.44 1016.70 1016.92 1017.09 1017.18 1017.22 1017.21 1017.17 1017.12 1017.08 1017.04
1008.46 1008.59 1008.63 1008.60 1008.57 1008.58 1008.65 1008.79 1008.97 1009.15 1009.30 1009.38 1009.38 1009.32 1009.26 1009.24 1009.35 1009.62 1010.07 1010.70 1011.45 1012.26 1013.05 1013.76 1014.35 1014.79 1015.10 1015.31 1015.48 1015.65 1015.85 1016.08 1016.35 1016.63 1016.88 1017.08 1017.20 1017.24 1017.22 1017.14 1017.05 1016.97 1016.91 1016.87
1007.91 1007.96 1007.94 1007.90 1007.89 1007.96 1008.11 1008.35 1008.62 1008.87 1009.06 1009.16 1009.15 1009.08 1008.99 1008.97 1009.10 1009.41 1009.94 1010.66 1011.52 1012.43 1013.32 1014.09 1014.70 1015.15 1015.44 1015.62 1015.75 1015.89 1016.06 1016.29 1016.57 1016.85 1017.10 1017.28 1017.38 1017.38 1017.29 1017.16 1017.01 1016.87 1016.78 1016.73
1007.29 1007.24 1007.16 1007.11 1007.13 1007.26 1007.50 1007.83 1008.18 1008.49 1008.71 1008.80 1008.77 1008.66 1008.54 1008.50 1008.63 1008.99 1009.59 1010.41 1011.39 1012.42 1013.41 1014.27 1014.95 1015.42 1015.72 1015.89 1016.00 1016.12 1016.28 1016.51 1016.79 1017.08 1017.34 1017.53 1017.61 1017.58 1017.45 1017.26 1017.05 1016.85 1016.71 1016.62
1006.70 1006.55 1006.41 1006.35 1006.40 1006.59 1006.90 1007.31 1007.73 1008.09 1008.33 1008.41 1008.34 1008.18 1008.01 1007.93 1008.05 1008.43 1009.09 1010.00 1011.09 1012.24 1013.35 1014.31 1015.07 1015.60 1015.92 1016.10 1016.21 1016.32 1016.48 1016.70 1016.99 1017.30 1017.58 1017.78 1017.86 1017.81 1017.65 1017.41 1017.14 1016.88 1016.67 1016.52
1006.27 1006.01 1005.81 1005.72 1005.78 1006.02 1006.40 1006.88 1007.36 1007.76 1008.01 1008.07 1007.96 1007.74 1007.51 1007.39 1007.49 1007.87 1008.56 1009.53 1010.70 1011.95 1013.17 1014.23 1015.07 1015.66 1016.03 1016.23 1016.34 1016.45 1016.60 1016.83 1017.13 1017.45 1017.75 1017.96 1018.06 1018.01 1017.82 1017.55 1017.23 1016.91 1016.63 1016.42
1006.10 1005.73 1005.45 1005.32 1005.38 1005.63 1006.06 1006.58 1007.10 1007.53 1007.78 1007.84 1007.69 1007.43 1007.15 1006.97 1007.03 1007.39 1008.08 1009.08 1010.30 1011.62 1012.91 1014.05 1014.96 1015.61 1016.02 1016.25 1016.37 1016.48 1016.63 1016.86 1017.16 1017.49 1017.80 1018.03 1018.14 1018.09 1017.91 1017.61 1017.25 1016.88 1016.55 1016.28
1006.27 1005.79 1005.41 1005.21 1005.23 1005.46 1005.89 1006.42 1006.96 1007.40 1007.67 1007.71 1007.56 1007.26 1006.94 1006.73 1006.74 1007.06 1007.73 1008.72 1009.94 1011.29 1012.61 1013.80 1014.76 1015.46 1015.91 1016.16 1016.30 1016.41 1016.55 1016.77 1017.06 1017.39 1017.71 1017.95 1018.07 1018.04 1017.85 1017.55 1017.17 1016.77 1016.40 1016.08
1006.80 1006.19 1005.71 1005.41 1005.34 1005.51 1005.88 1006.38 1006.90 1007.34 1007.60 1007.66 1007.51 1007.21 1006.88 1006.64 1006.62 1006.90 1007.53 1008.47 1009.67 1010.99 1012.32 1013.52 1014.50 1015.23 1015.70 1015.98 1016.13 1016.24 1016.37 1016.57 1016.85 1017.16 1017.47 1017.72 1017.84 1017.82 1017.65 1017.35 1016.97 1016.56 1016.17 1015.82
1007.65 1006.92 1006.30 1005.87 1005.67 1005.72 1005.99 1006.40 1006.86 1007.26 1007.52 1007.59 1007.46 1007.20 1006.89 1006.66 1006.63 1006.88 1007.46 1008.35 1009.48 1010.75 1012.04 1013.21 1014.19 1014.93 1015.42 1015.72 1015.88 1015.99 1016.11 1016.30 1016.55 1016.84 1017.13 1017.37 1017.50 1017.49 1017.33 1017.05 1016.68 1016.28 1015.88 1015.52
1008.72 1007.88 1007.14 1006.55 1006.18 1006.05 1006.15 1006.42 1006.77 1007.11 1007.34 1007.41 1007.33 1007.12 1006.87 1006.69 1006.68 1006.92 1007.46 1008.29 1009.35 1010.55 1011.77 1012.90 1013.85 1014.58 1015.08 1015.40 1015.57 1015.69 1015.82 1015.99 1016.21 1016.48 1016.75 1016.96 1017.09 1017.08 1016.94 1016.69 1016.34 1015.95 1015.56 1015.21
1009.89 1008.97 1008.09 1007.34 1006.78 1006.44 1006.34 1006.42 1006.61 1006.84 1007.02 1007.09 1007.04 1006.91 1006.74 1006.63 1006.67 1006.94 1007.46 1008.24 1009.23 1010.35 1011.50 1012.57 1013.48 1014.20 1014.71 1015.04 1015.24 1015.37 1015.50 1015.67 1015.87 1016.12 1016.36 1016.56 1016.67 1016.68 1016.55 1016.31 1016.00 1015.63 1015.26 1014.91
1011.04 1010.06 1009.08 1008.18 1007.42 1006.86 1006.52 1006.38 1006.38 1006.46 1006.55 1006.60 1006.59 1006.52 1006.45 1006.44 1006.56 1006.87 1007.41 1008.16 1009.09 1010.14 1011.21 1012.21 1013.09 1013.79 1014.30 1014.65 1014.88 1015.04 1015.19 1015.35 1015.55 1015.78 1016.00 1016.19 1016.29 1016.29 1016.18 1015.97 1015.68 1015.34 1014.98 1014.65
1012.04 1011.05 1010.01 1008.98 1008.06 1007.29 1006.71 1006.32 1006.11 1006.02 1005.99 1005.99 1005.99 1005.98 1006.00 1006.10 1006.31 1006.69 1007.26 1008.00 1008.90 1009.88 1010.89 1011.83 1012.67 1013.34 1013.86 1014.23 1014.49 1014.69 1014.86 1015.04 1015.24 1015.46 1015.67 1015.85 1015.95 1015.95 1015.85 1015.66 1015.39 1015.06 1014.73 1014.39
1012.83 1011.87 1010.81 1009.71 1008.65 1007.70 1006.91 1006.30 1005.87 1005.58 1005.42 1005.33 1005.31 1005.34 1005.44 1005.63 1005.94 1006.39 1007.01 1007.76 1008.64 1009.58 1010.53 1011.42 1012.21 1012.87 1013.39 1013.77 1014.07 1014.29 1014.50 1014.70 1014.92 1015.14 1015.35 1015.52 1015.62 1015.63 1015.54 1015.36 1015.10 1014.79 1014.46 1014.11
1013.36 1012.46 1011.43 1010.31 1009.18 1008.11 1007.14 1006.33 1005.69 1005.22 1004.90 1004.72 1004.65 1004.69 1004.84 1005.10 1005.49 1006.02 1006.68 1007.45 1008.32 1009.23 1010.13 1010.98 1011.73 1012.36 1012.88 1013.28 1013.59 1013.85 1014.09 1014.32 1014.56 1014.79 1015.01 1015.18 1015.29 1015.31 1015.22 1015.05 1014.80 1014.49 1014.15 1013.79
1013.62 1012.81 1011.84 1010.76 1009.62 1008.48 1007.40 1006.44 1005.63 1004.99 1004.52 1004.22 1004.09 1004.10 1004.26 1004.57 1005.02 1005.60 1006.30 1007.10 1007.96 1008.84 1009.71 1010.51 1011.23 1011.84 1012.34 1012.74 1013.08 1013.36 1013.63 1013.89 1014.14 1014.40 1014.62 1014.81 1014.92 1014.94 1014.87 1014.70 1014.45 1014.13 1013.77 1013.38
1013.63 1012.91 1012.04 1011.03 1009.93 1008.79 1007.66 1006.61 1005.68 1004.90 1004.30 1003.89 1003.67 1003.64 1003.79 1004.11 1004.59 1005.20 1005.93 1006.74 1007.59 1008.45 1009.29 1010.05 1010.73 1011.31 1011.80 1012.20 1012.54 1012.85 1013.13 1013.41 1013.69 1013.96 1014.20 1014.39 1014.51 1014.54 1014.47 1014.30 1014.04 1013.71 1013.32 1012.90
1013.46 1012.82 1012.04 1011.13 1010.10 1009.00 1007.88 1006.80 1005.80 1004.94 1004.24 1003.73 1003.43 1003.34 1003.46 1003.77 1004.24 1004.87 1005.60 1006.41 1007.25 1008.08 1008.88 1009.61 1010.26 1010.81 1011.28 1011.68 1012.03 1012.35 1012.65 1012.94 1013.24 1013.52 1013.77 1013.96 1014.09 1014.12 1014.04 1013.87 1013.59 1013.24 1012.82 1012.36
1013.19 1012.59 1011.89 1011.06 1010.13 1009.10 1008.04 1006.97 1005.96 1005.05 1004.29 1003.72 1003.36 1003.21 1003.28 1003.56 1004.02 1004.62 1005.34 1006.13 1006.95 1007.76 1008.52 1009.22 1009.84 1010.37 1010.83 1011.23 1011.58 1011.91 1012.22 1012.53 1012.83 1013.12 1013.37 1013.56 1013.68 1013.70 1013.61 1013.42 1013.13 1012.75 1012.30 1011.81
1012.91 1012.31 1011.64 1010.88 1010.03 1009.09 1008.09 1007.08 1006.09 1005.19 1004.42 1003.81 1003.41 1003.22 1003.25 1003.49 1003.91 1004.49 1005.18 1005.94 1006.72 1007.50 1008.24 1008.91 1009.50 1010.03 1010.48 1010.88 1011.24 1011.57 1011.90 1012.21 1012.52 1012.80 1013.04 1013.22 1013.32 1013.32 1013.21 1012.99 1012.68 1012.27 1011.80 1011.28
1012.71 1012.06 1011.38 1010.64 1009.84 1008.97 1008.05 1007.10 1006.18 1005.31 1004.56 1003.96 1003.55 1003.34 1003.33 1003.54 1003.93 1004.47 1005.12 1005.83 1006.58 1007.32 1008.03 1008.68 1009.26 1009.77 1010.23 1010.63 1011.01 1011.35 1011.69 1012.01 1012.31 1012.57 1012.79 1012.94 1013.01 1012.98 1012.84 1012.60 1012.25 1011.83 1011.33 1010.80
1012.65 1011.90 1011.16 1010.41 1009.62 1008.79 1007.93 1007.05 1006.19 1005.39 1004.69 1004.13 1003.73 1003.52 1003.51 1003.70 1004.05 1004.55 1005.15 1005.82 1006.53 1007.23 1007.90 1008.52 1009.09 1009.61 1010.07 1010.49 1010.88 1011.24 1011.58 1011.89 1012.18 1012.42 1012.61 1012.72 1012.74 1012.67 1012.49 1012.21 1011.85 1011.40 1010.90 1010.36
1012.76 1011.89 1011.06 1010.24 1009.42 1008.59 1007.76 1006.93 1006.13 1005.40 1004.77 1004.26 1003.91 1003.74 1003.74 1003.92 1004.25 1004.71 1005.27 1005.89 1006.55 1007.20 1007.84 1008.44 1008.99 1009.51 1009.98 1010.41 1010.81 1011.18 1011.52 1011.83 1012.09 1012.30 1012.44 1012.50 1012.47 1012.35 1012.13 1011.82 1011.43 1010.97 1010.47 1009.94
1013.05 1012.05 1011.09 1010.17 1009.28 1008.41 1007.56 1006.76 1006.01 1005.34 1004.78 1004.35 1004.07 1003.94 1003.98 1004.17 1004.49 1004.93 1005.45 1006.02 1006.62 1007.23 1007.82 1008.39 1008.93 1009.43 1009.90 1010.34 1010.75 1011.12 1011.46 1011.75 1011.98 1012.15 1012.24 1012.24 1012.15 1011.98 1011.71 1011.37 1010.96 1010.50 1010.01 1009.50
1013.48 1012.35 1011.26 1010.21 1009.21 1008.26 1007.37 1006.55 1005.83 1005.21 1004.71 1004.36 1004.15 1004.09 1004.18 1004.40 1004.74 1005.16 1005.65 1006.18 1006.73 1007.28 1007.82 1008.35 1008.86 1009.34 1009.80 1010.24 1010.64 1011.01 1011.33 1011.59 1011.79 1011.91 1011.95 1011.89 1011.75 1011.52 1011.22 1010.85 1010.43 1009.97 1009.50 1009.01
Thickness
5755 5750 5748 5753 5757 5756 5753 5751 5749 5755 5763 5759 5757 5757 5762 5768 5766 5764 5763 5762 5760 5758 5759 5756 5752 5749 5744 5739 5735 5730 5725 5720 5715 5710 5706 5702 5698 5696 5693 5690 5685 5682 5680 5677
5749 5747 5757 5760 5759 5755 5753 5749 5750 5755 5760 5756 5754 5755 5763 5765 5763 5762 5759 5758 5756 5754 5752 5749 5747 5744 5739 5735 5731 5726 5721 5716 5711 5706 5702 5698 5694 5691 5688 5684 5679 5676 5674 5672
5747 5754 5760 5755 5752 5749 5751 5751 5751 5750 5755 5758 5753 5749 5758 5762 5763 5761 5759 5757 5755 5751 5746 5743 5741 5739 5735 5731 5727 5723 5717 5711 5706 5701 5698 5693 5688 5685 5682 5678 5675 5671 5668 5666
5752 5758 5754 5751 5750 5750 5745 5758 5754 5750 5747 5750 5749 5740 5753 5757 5753 5753 5753 5752 5750 5747 5744 5741 5739 5735 5731 5728 5724 5719 5713 5707 5701 5697 5693 5689 5685 5681 5677 5673 5670 5666 5663 5661
5748 5752 5749 5745 5749 5750 5751 5757 5753 5751 5748 5746 5749 5742 5752 5753 5744 5746 5748 5748 5746 5744 5741 5737 5735 5732 5728 5724 5719 5714 5708 5702 5697 5693 5689 5684 5681 5677 5673 5668 5664 5661 5659 5656
5751 5757 5753 5750 5754 5754 5753 5751 5750 5750 5749 5732 5743 5737 5740 5746 5741 5742 5744 5743 5741 5739 5737 5734 5731 5728 5723 5719 5714 5709 5703 5697 5693 5689 5685 5680 5675 5671 5666 5663 5660 5657 5655 5652
5742 5749 5753 5754 5746 5749 5747 5738 5728 5729 5731 5734 5745 5736 5736 5742 5743 5740 5738 5737 5735 5734 5730 5728 5725 5720 5716 5713 5709 5705 5699 5693 5689 5685 5681 5676 5671 5667 5662 5659 5657 5653 5651 5648
5727 5731 5743 5745 5741 5736 5740 5737 5719 5712 5721 5735 5740 5733 5737 5740 5741 5739 5736 5734 5730 5727 5725 5722 5719 5715 5712 5709 5705 5700 5695 5689 5685 5681 5676 5672 5668 5665 5662 5656 5654 5650 5647 5645
5719 5722 5742 5744 5746 5741 5734 5735 5741 5728 5728 5724 5732 5736 5735 5735 5732 5731 5728 5726 5723 5721 5719 5717 5713 5710 5707 5703 5699 5696 5691 5685 5681 5677 5672 5668 5664 5661 5657 5653 5649 5647 5642 5640
5718 5711 5731 5740 5742 5741 5739 5735 5727 5719 5706 5708 5721 5725 5724 5720 5719 5721 5719 5718 5717 5715 5712 5709 5706 5703 5701 5698 5694 5690 5686 5681 5678 5674 5670 5666 5660 5656 5653 5650 5646 5643 5639 5636
5716 5706 5719 5727 5724 5722 5724 5723 5719 5718 5716 5702 5701 5713 5725 5718 5714 5710 5710 5710 5709 5707 5705 5702 5699 5697 5694 5691 5688 5684 5681 5678 5674 5671 5666 5661 5657 5654 5650 5647 5644 5640 5636 5632
5708 5705 5705 5717 5728 5729 5723 5719 5714 5699 5701 5706 5702 5706 5718 5716 5711 5707 5703 5701 5700 5699 5698 5696 5693 5690 5687 5684 5682 5680 5677 5674 5670 5666 5662 5657 5654 5651 5647 5644 5640 5637 5633 5630
5697 5692 5690 5704 5711 5716 5712 5712 5711 5707 5701 5697 5694 5700 5710 5709 5704 5701 5696 5694 5693 5691 5689 5687 5685 5683 5680 5679 5677 5674 5671 5669 5666 5663 5658 5654 5651 5647 5643 5640 5637 5634 5630 5627
5691 5687 5684 5681 5690 5698 5697 5700 5702 5698 5691 5693 5696 5697 5701 5697 5693 5690 5688 5687 5686 5684 5681 5679 5677 5676 5674 5673 5671 5669 5666 5665 5662 5659 5654 5651 5647 5644 5641 5638 5634 5631 5628 5625
5684 5683 5687 5689 5694 5694 5692 5692 5693 5690 5689 5685 5690 5692 5690 5688 5685 5682 5680 5679 5678 5676 5674 5672 5669 5669 5668 5667 5666 5664 5662 5660 5658 5654 5651 5647 5644 5642 5639 5636 5632 5628 5625 5624
5677 5674 5679 5681 5689 5689 5685 5688 5687 5685 5685 5683 5684 5683 5684 5683 5681 5675 5672 5671 5670 5669 5667 5665 5664 5663 5661 5661 5660 5659 5657 5655 5653 5650 5648 5646 5642 5640 5636 5633 5630 5627 5624 5621
5670 5666 5667 5674 5683 5679 5674 5681 5679 5677 5679 5676 5672 5673 5675 5671 5669 5666 5665 5664 5663 5662 5661 5659 5658 5657 5656 5655 5654 5653 5653 5651 5649 5647 5645 5643 5641 5637 5634 5631 5628 5625 5621 5619
5659 5660 5663 5667 5667 5656 5672 5681 5677 5671 5670 5670 5667 5666 5664 5662 5663 5663 5661 5658 5657 5655 5654 5653 5652 5651 5651 5650 5649 5648 5648 5647 5646 5644 5642 5641 5638 5636 5632 5629 5626 5623 5620 5617
5659 5654 5656 5659 5658 5662 5670 5671 5668 5661 5659 5661 5659 5656 5656 5656 5658 5659 5656 5654 5651 5650 5649 5647 5647 5647 5646 5645 5644 5643 5643 5643 5642 5641 5639 5638 5636 5633 5630 5628 5624 5621 5618 5615
5657 5653 5650 5653 5645 5645 5656 5663 5667 5659 5651 5652 5651 5647 5647 5647 5647 5649 5649 5647 5646 5644 5644 5643 5643 5643 5641 5640 5640 5639 5639 5639 5638 5637 5636 5635 5633 5630 5628 5626 5623 5621 5617 5615
5649 5647 5645 5644 5641 5649 5653 5656 5658 5642 5638 5643 5644 5643 5641 5640 5639 5640 5641 5640 5639 5639 5639 5639 5639 5638 5637 5636 5635 5634 5635 5635 5635 5634 5633 5631 5630 5628 5626 5624 5621 5619 5617 5614
5641 5642 5640 5638 5634 5637 5644 5645 5636 5633 5638 5639 5639 5638 5636 5635 5635 5635 5635 5634 5634 5634 5635 5635 5634 5633 5633 5632 5631 5631 5631 5632 5632 5631 5630 5628 5627 5626 5624 5621 5619 5618 5615 5613
5636 5635 5635 5632 5634 5637 5637 5633 5633 5633 5632 5633 5632 5632 5630 5630 5630 5630 5630 5629 5630 5630 5630 5630 5630 5629 5629 5629 5629 5628 5629 5629 5629 5628 5627 5625 5625 5623 5622 5620 5619 5617 5615 5615
5634 5631 5627 5626 5632 5632 5632 5631 5630 5629 5628 5628 5628 5627 5626 5624 5624 5625 5625 5625 5625 5626 5626 5626 5626 5625 5625 5626 5626 5627 5627 5627 5627 5626 5624 5623 5623 5622 5622 5620 5620 5619 5617 5615
5625 5623 5620 5619 5624 5625 5627 5625 5624 5623 5624 5624 5624 5623 5622 5620 5620 5620 5621 5621 5621 5622 5623 5623 5622 5622 5623 5624 5624 5626 5626 5626 5625 5624 5623 5623 5623 5624 5621 5621 5619 5618 5615 5612
5622 5618 5614 5616 5618 5615 5617 5619 5620 5618 5619 5619 5618 5619 5619 5618 5618 5618 5618 5619 5619 5620 5620 5620 5620 5621 5622 5622 5623 5624 5625 5625 5623 5623 5622 5624 5625 5624 5623 5622 5620 5614 5611 5607